Home   Weather   Coquitlam   Past weeks
Flag for Canada

Past Weather in Coquitlam, British Columbia, Canada — Yesterday and Last 2 Weeks

Now
51 °F

Cool.


Feels Like: 50 °F
Forecast: 54 / 47 °F
Wind: 3 mph from Southwest

Location: P. Meadows Coastal Station

Current Time: Oct 22, 2019 at 7:53:57 am

Latest Report: Oct 22, 2019 at 7:00 am


Visibility: N/A

Pressure: 30.22 "Hg

Humidity: 97%

Dew Point: 50 °F

Location of CoquitlamLocation

Past Weather in Coquitlam — Graph

°F

Coquitlam Temperature Yesterday

Maximum temperature yesterday: 50 °F (at 1:00 pm)
Minimum temperature yesterday: 46 °F (at 8:00 pm)
Average temperature yesterday: 47 °F

High & Low Weather Summary for the Past Weeks

 TemperatureHumidityPressure
High61 °F (Oct 11, 4:00 pm)100% (Oct 7, 2:00 pm)30.50 "Hg (Oct 7, 2:00 pm)
Low31 °F (Oct 10, 4:00 am)26% (Oct 9, 4:00 pm)29.56 "Hg (Oct 17, 7:00 pm)
Average47 °F85%29.99 "Hg
* Reported Oct 7 6:00 am — Oct 22 6:00 am, Coquitlam. Weather by CustomWeather, © 2019

Note: Actual official high and low records may vary slightly from our data, if they occured in-between our weather recording intervals... More about our weather records

Advertising

Coquitlam Weather History for the Previous 24 Hours

Scroll right to see more
 ConditionsComfort  
Time TempWeatherWind HumidityBarometerVisibility
6:00 am
Tue, Oct 22
47 °FCool.1 mph100%30.19 "HgN/A
5:00 am49 °FCool.3 mph97%30.16 "HgN/A
4:00 am49 °FCool.1 mph96%30.14 "HgN/A
3:00 am48 °FCool.1 mph90%30.14 "HgN/A
2:00 am48 °FCool.2 mph97%30.11 "HgN/A
1:00 am48 °FCool.2 mph97%30.09 "HgN/A
12:00 am47 °FCool.2 mph96%30.09 "HgN/A
11:00 pm
Mon, Oct 21
46 °FCool.9 mph100%30.07 "HgN/A
10:00 pm47 °FCool.8 mph96%30.05 "HgN/A
9:00 pm46 °FCool.9 mph100%30.05 "HgN/A
8:00 pm46 °FCool.7 mph100%30.05 "HgN/A
7:00 pm47 °FCool.7 mph94%30.06 "HgN/A
6:00 pm47 °FCool.9 mph92%30.07 "HgN/A
5:00 pm48 °FCool.7 mph91%30.09 "HgN/A
4:00 pm49 °FCool.3 mph94%30.09 "HgN/A
3:00 pm49 °FCool.6 mph95%30.10 "HgN/A
2:00 pm48 °FCool.8 mph95%30.12 "HgN/A
1:00 pm50 °FCool.5 mph95%30.14 "HgN/A
12:00 pm49 °FCool.6 mph100%30.14 "HgN/A
11:00 am50 °FCool.1 mph96%30.16 "HgN/A
10:00 am48 °FCool.1 mph90%30.16 "HgN/A
9:00 am47 °FCool.1 mph97%30.14 "HgN/A
8:00 am47 °FCool.No wind96%30.12 "HgN/A
7:00 am47 °FCool.2 mph96%30.12 "HgN/A
Weather by CustomWeather, © 2019

See weather overview